Weather History for Naples, FL

Change the Weather History Date:

Sunday, March 10, 2013

  Actual Average Record
Temperature  
Mean Temperature 68 °F 70 °F  
Max Temperature 81 °F 80 °F 91 °F (1974)
Min Temperature 55 °F 60 °F 45 °F (1989)
Degree Days  
Heating Degree Days 0 1  
Month to date heating degree days 55 10  
Since 1 July heating degree days 149 243  
Cooling Degree Days 3 5  
Month to date cooling degree days 3 50  
Year to date cooling degree days 331 241  
Growing Degree Days 18 (Base 50)    
Moisture  
Dew Point 54 °F    
Average Humidity 61    
Maximum Humidity 86    
Minimum Humidity 36    
Precipitation  
Precipitation 0.00 in 0.08 in 1.10 in (1967)
Month to date precipitation 0.05 0.69  
Year to date precipitation 1.87 4.64  
Snow  
Snow 0.00 in - - ()
Month to date snowfall 0.0  
Since 1 July snowfall 0.0  
Snow Depth 0.00 in    
Sea Level Pressure  
Sea Level Pressure 30.09 in    
Wind  
Wind Speed 8 mph (East)    
Max Wind Speed 18 mph    
Max Gust Speed 26 mph    
Visibility 10 miles    
Events      
T = Trace of Precipitation, MM = Missing Value Source: NWS Daily Summary

Daily Weather History Graph

Daily Weather History Graph

Search for Another Location

Airport:

Trip Planner

Search our weather history database for the weather conditions in past years. The results will help you decide how hot, cold, wet, or windy it might be!

Date:

Astronomy

Mar. 10, 2013 Rise Set
Actual Time 7:41 AM EDT 7:33 PM EDT
Civil Twilight 7:18 AM EDT 7:56 PM EDT
Nautical Twilight 6:51 AM EDT 8:23 PM EDT
Astronomical Twilight 6:24 AM EDT 8:50 PM EDT
Moon 6:36 AM EDT (3/10) 6:40 PM EDT (3/10)
Length of Visible Light 12h 38m
Length of Day
11h 52m
Waning Crescent, 2% of the Moon is Illuminated
Mar 10
Waning Crescent
Mar 11
New
Mar 19
First Quarter
Mar 27
Full
Apr 3
Last Quarter

Hourly Weather History & Observations

Time (EDT) Temp. Dew Point Humidity Pressure Visibility Wind Dir Wind Speed Gust Speed Precip Events Conditions
12:53 AM 61.0 °F 51.1 °F 70% 30.14 in 10.0 mi East 9.2 mph - N/A   Clear
1:53 AM 59.0 °F 51.1 °F 75% 30.12 in 10.0 mi ENE 5.8 mph - N/A   Clear
3:53 AM 57.0 °F 51.1 °F 81% 30.11 in 10.0 mi ENE 3.5 mph - N/A   Clear
4:53 AM 57.0 °F 51.1 °F 81% 30.11 in 10.0 mi NE 3.5 mph - N/A   Clear
5:53 AM 57.0 °F 51.1 °F 81% 30.11 in 10.0 mi ENE 6.9 mph - N/A   Clear
6:53 AM 57.0 °F 52.0 °F 83% 30.11 in 10.0 mi ENE 6.9 mph - N/A   Clear
8:53 AM 60.1 °F 54.0 °F 80% 30.13 in 8.0 mi ENE 8.1 mph - N/A   Scattered Clouds
9:53 AM 66.9 °F 54.0 °F 63% 30.14 in 10.0 mi ENE 8.1 mph - N/A   Clear
10:53 AM 72.0 °F 53.1 °F 51% 30.13 in 10.0 mi East 16.1 mph 23.0 mph N/A   Clear
11:53 AM 73.0 °F 52.0 °F 48% 30.13 in 10.0 mi East 15.0 mph 25.3 mph N/A   Scattered Clouds
12:53 PM 75.9 °F 52.0 °F 43% 30.11 in 10.0 mi East 13.8 mph 20.7 mph N/A   Scattered Clouds
1:53 PM 78.1 °F 53.1 °F 42% 30.07 in 10.0 mi East 13.8 mph 19.6 mph N/A   Partly Cloudy
2:53 PM 80.1 °F 52.0 °F 38% 30.06 in 10.0 mi ESE 6.9 mph 18.4 mph N/A   Clear
3:53 PM 80.1 °F 52.0 °F 38% 30.04 in 10.0 mi SE 12.7 mph 17.3 mph N/A   Partly Cloudy
4:53 PM 78.1 °F 52.0 °F 40% 30.03 in 10.0 mi ESE 10.4 mph 17.3 mph N/A   Scattered Clouds
5:53 PM 73.0 °F 57.9 °F 59% 30.03 in 10.0 mi SSW 12.7 mph - N/A   Mostly Cloudy
6:53 PM 71.1 °F 57.9 °F 63% 30.05 in 10.0 mi SW 6.9 mph - N/A   Mostly Cloudy
7:53 PM 69.1 °F 59.0 °F 70% 30.06 in 10.0 mi South 4.6 mph - N/A   Clear
8:53 PM 69.1 °F 59.0 °F 70% 30.07 in 10.0 mi Calm Calm - N/A   Mostly Cloudy
10:53 PM 66.0 °F 55.0 °F 68% 30.10 in 10.0 mi East 9.2 mph - N/A   Clear
11:53 PM 66.0 °F 55.9 °F 70% 30.10 in 10.0 mi East 9.2 mph - N/A   Mostly Cloudy
12:53 AM 64.0 °F 55.9 °F 75% 30.09 in 10.0 mi East 6.9 mph - N/A   Clear